Cloud_Cover
100 100 8 5 0 0 0 0 4 2 5 0 3 8 91 89 83 96 100 100 100 99 100 100 100 100 100 100 100 100 100 100 100 100 100 100 100 100 100 100 100 100 100 100
100 100 62 8 5 0 0 3 21 54 40 4 0 52 92 100 100 100 100 100 100 100 100 100 100 100 100 100 100 100 100 100 100 100 100 100 100 100 100 100 100 100 100 100
100 100 50 7 25 5 2 0 4 5 2 0 4 87 99 100 100 100 100 100 100 100 100 100 100 100 100 100 100 100 100 100 100 100 100 100 100 100 100 100 100 100 98 100
100 91 98 46 98 5 5 0 5 61 54 2 91 85 75 100 100 100 100 100 100 100 100 100 100 100 100 100 100 100 100 100 100 100 100 100 100 100 100 100 91 98 99 100
82 100 100 74 100 5 5 1 3 0 5 9 4 10 99 100 100 100 100 100 100 100 100 100 100 100 100 100 100 100 100 100 100 100 100 100 100 100 100 100 100 100 100 100
100 95 100 98 89 5 100 5 2 0 4 35 5 4 23 81 100 100 100 100 100 100 100 100 100 100 100 100 100 100 100 100 100 100 100 100 100 100 100 100 100 100 100 100
82 95 91 100 100 100 100 28 59 2 0 2 5 5 5 5 30 78 99 51 69 99 100 100 100 100 100 100 100 100 100 100 100 100 100 100 100 100 100 100 100 100 100 100
6 93 15 14 65 100 100 98 7 49 0 1 3 28 5 5 5 0 0 0 1 50 100 95 100 100 100 100 100 100 100 100 100 100 100 100 100 100 100 100 100 100 100 100
4 5 3 4 5 96 100 100 42 11 0 5 5 5 5 5 1 0 0 0 0 0 61 100 100 100 100 100 100 100 100 100 100 100 100 100 100 100 100 100 100 100 100 100
5 2 0 0 3 94 100 100 100 85 5 5 5 2 1 1 0 0 0 0 0 0 0 94 100 100 100 100 100 100 100 100 100 100 100 100 100 100 100 100 100 100 100 100
5 5 4 0 0 8 100 100 100 100 69 5 9 6 4 4 0 0 0 0 0 0 3 95 100 100 100 100 100 100 100 100 100 100 100 100 100 100 100 100 100 100 100 100
5 5 21 5 1 1 94 100 65 100 53 5 5 2 5 5 5 3 5 2 5 4 5 12 10 85 100 100 100 100 100 100 100 100 100 100 100 100 100 100 100 100 100 100
5 5 5 43 5 5 1 0 4 47 100 44 0 0 5 5 4 3 2 0 0 5 7 15 100 100 100 100 100 100 100 100 100 100 100 100 100 100 100 100 100 100 100 100
48 74 5 15 37 8 1 0 1 4 5 4 1 0 5 12 5 2 5 5 0 0 5 48 48 61 100 100 100 100 100 100 100 100 100 100 100 100 100 100 100 100 100 100
89 100 47 30 22 99 10 4 0 0 0 4 34 100 100 6 5 5 5 5 11 18 4 3 24 48 68 100 100 100 100 100 100 100 100 100 100 100 100 100 99 100 100 100
78 100 78 5 5 59 71 5 3 0 0 0 4 78 100 100 86 6 5 5 5 5 2 3 3 1 56 96 100 84 77 99 100 100 100 100 100 100 100 100 100 100 100 100
49 88 68 41 5 6 86 11 5 11 46 68 39 90 90 42 82 74 5 5 5 5 5 5 5 5 5 8 22 24 55 93 100 100 100 100 100 100 100 100 100 100 100 100
100 50 87 73 7 29 59 80 5 26 91 100 100 100 91 86 75 100 58 5 5 5 5 5 5 5 70 97 99 88 54 5 9 87 100 100 100 100 100 100 100 100 100 100
100 55 30 39 33 34 100 99 96 97 99 96 100 100 100 100 100 83 100 77 77 34 9 8 5 6 30 5 5 5 13 74 64 5 20 100 100 100 100 100 100 100 100 100
100 100 100 90 75 100 100 57 100 80 88 100 100 100 100 100 69 100 100 99 84 50 5 5 5 5 5 5 5 55 40 10 8 6 6 15 64 63 98 100 100 100 100 100
100 100 100 100 100 100 100 84 61 100 100 100 100 100 100 100 100 100 98 64 38 24 37 16 27 5 5 5 10 18 50 70 49 66 86 78 57 66 28 68 20 37 83 100
100 100 100 100 100 100 100 100 100 100 100 100 100 99 99 100 100 100 100 79 81 100 100 8 29 5 5 5 56 98 100 97 82 81 98 96 88 100 100 98 93 100 100 100
100 100 100 100 100 100 100 100 100 100 100 100 100 90 86 100 100 67 18 9 7 9 8 51 5 5 5 5 74 100 99 100 100 100 100 100 100 100 100 100 100 100 100 100
100 100 100 100 100 100 100 100 100 100 100 100 100 100 100 100 82 90 9 5 5 5 90 15 36 5 5 5 5 22 92 100 100 100 100 100 96 100 100 100 100 100 100 100
100 100 100 100 100 100 100 100 100 100 100 100 100 96 73 19 19 9 5 5 5 5 5 17 9 5 5 5 5 5 95 98 100 100 100 100 100 99 99 99 100 100 100 100
100 100 100 100 100 100 100 100 100 100 99 72 84 100 71 5 5 5 5 5 5 5 87 100 100 100 78 15 5 26 99 100 100 100 100 100 100 97 100 100 100 100 100 100